SITE,date,SE_FSC_dry,SE_FSC_carbon,SE_FSC_nitrogen,SE_FSC_fraction_canopy,SE_frond_density,SE_plant_density,SE_plant_loss_rate,SE_frond_loss_rate,SE_cut_frond_loss_rate,SE_blade_loss_rate,SE_dissolved_loss_rate,SE_carbon_lost_as_plants,SE_carbon_lost_as_fronds,SE_carbon_lost_as_cut_fronds,SE_carbon_lost_as_blades,SE_carbon_lost_as_dissolved,FSC_dry,FSC_carbon,FSC_nitrogen,FSC_fraction_canopy,Frond_density,Plant_density,Surface_Irradiance,Bottom_Irradiance,Subsurface_Irradiance,Plant_loss_rate,Frond_loss_rate,Cut_frond_loss_rate,Blade_loss_rate,Dissolved_loss_rate,Carbon_lost_as_plants,Carbon_lost_as_fronds,Carbon_lost_as_cut_fronds,Carbon_lost_as_blades,Carbon_lost_as_dissolved
ABUR,2002-05-10,0.1486353228,0.0330240126,0.0047193204,0.0131760987,1.0422361545,0.0275227138,,,0,,,,,,,,1.0913814525,0.2171601305,0.0226979971,0.5447558541,8.5125,0.26875,774.32810408,27.621902049,133.64325824,,,0,,,,,,,
ABUR,2002-06-12,0.1646281456,0.0558177934,0.0060959416,0.016981036,0.9285066792,0.0274388899,0,0.004847352,0.000095263,0.0010495723,0.000284715,0,0.0014480686,0.0000315572,0.000484439,0.0001203729,1.1134585684,0.3503207422,0.0272529543,0.5557673029,7.2333333333,0.26875,785.35521972,19.187056773,113.26640385,0,0.0154740686,0.0004725964,0.0125889835,0.0038485438,0,0.0043088155,0.0001315963,0.0035054521,0.0010716422
ABUR,2002-07-12,0.1512577055,0.0487455665,0.0038531401,0.0177567743,0.6792530979,0.0135669673,0,0.0028585964,0,0.0010834444,0.0002386765,0,0.0009551658,0,0.0005916671,0.000129092,0.948034367,0.2800304167,0.0165016602,0.6196017671,5.525,0.15,787.02746231,22.89326049,123.7231715,0,0.0092633979,0,0.0129135535,0.0033679563,0,0.0029074552,0,0.0040531109,0.0010570832
ABUR,2002-08-09,0.1751927685,0.0616006248,0.006183004,0.0137659761,0.9500645743,0.0224304703,0,0.0019363954,0,0.0011252337,0.0002417622,0,0.0006931209,0,0.0006270255,0.0001316857,1.2811860149,0.4037920645,0.0295138976,0.5555924018,8.2520833333,0.2291666667,784.40159763,39.118579501,148.53340182,0,0.0061436487,0,0.012844803,0.0033807779,0,0.0020774434,0,0.0043434045,0.0011431928
ABUR,2002-09-10,0.1670347853,0.0522736304,0.0045470938,0.0150210356,0.9023559642,0.0189987963,0,0.0035001823,0,0.0010872655,0.0002247888,0,0.0012863584,0,0.0006302204,0.0001304791,0.9662381303,0.2816811384,0.0196778147,0.5854229967,6.1979166667,0.1541666667,737.66249397,26.263848995,140.49546635,0,0.0114815309,0,0.0127427168,0.0032278483,0,0.0038931564,0,0.0043207992,0.0010944985
ABUR,2002-10-11,0.2058132074,0.0578234708,0.0075332409,0.0121475908,1.2019506665,0.0301270985,0,0.0033494976,3.6370046E-6,0.0010711187,0.0002471129,0,0.0012011143,1.2733626E-6,0.000612406,0.0001369627,1.5649784408,0.3892062163,0.0363607825,0.5713267031,10.327083333,0.2958333333,640.27146828,22.176187599,130.8651541,0,0.0109211128,0.0000121051,0.0126725388,0.003446201,0,0.0036318325,4.0255704E-6,0.0042142719,0.0011460393
ABUR,2002-11-21,0.0533622106,0.0151189578,0.0015992203,0.0247117195,0.3593569994,0.0108640444,0.0057607375,0.0082396208,0.0001040853,0.0009901421,0.0002637281,0.0011734847,0.0016908566,0.0000209221,0.0003537024,0.0000809032,0.3053874201,0.0811361503,0.0067304787,0.4729813028,2.4666666667,0.0979166667,536.96763744,22.644467983,111.84951857,0.0086993889,0.0254228444,0.0002817008,0.0121653455,0.0032284029,0.0017092183,0.0049949705,0.0000553473,0.0023901945,0.0006343026
ABUR,2002-12-09,0.0701009131,0.0198996575,0.0018555607,0.0201404286,0.3483256603,0.0103668514,0,0.0044917168,0,0.0009922273,0.0002114241,0,0.0004505806,0,0.0001758803,0.0000372526,0.4227787199,0.1101039965,0.0079151525,0.5700998522,2.7166666667,0.1,497.99038989,15.398746331,97.247334826,0,0.0144765686,0,0.0121061022,0.002897282,0,0.0013735981,0,0.0011486782,0.0002749064
ABUR,2003-01-16,0.0224460416,0.005696906,0.0004894784,0.0596316882,0.1143675326,0.0014759611,0.0141073609,0.0061427913,0,0.001020205,0.0002462223,0.0007537595,0.0003588925,0,0.0001216426,0.0000255194,0.0706835135,0.0174453257,0.0013589059,0.4990073396,0.4833333333,0.0104166667,472.91744079,7.9886221084,78.69921872,0.0316834949,0.0223967184,0,0.0124617888,0.0029067145,0.0015934783,0.0011264125,0,0.0006267487,0.0001461893
ABUR,2003-02-18,0.0398227386,0.0110842871,0.0007082603,0.0474534516,0.2250417145,0.0021342137,0.0039686213,0.0048185591,0,0.0009614978,0.0002314418,0.0001077924,0.0001505985,0,0.0000780575,0.000017134,0.1240219721,0.0340831453,0.0019414007,0.4911584925,0.8520833333,0.0125,502.75748688,8.1818858377,75.247507081,0.0055248957,0.0152207513,0,0.0122404853,0.0027550231,0.0001372524,0.000378122,0,0.0003040846,0.0000684417
ABUR,2003-03-06,0.0576412761,0.0182362361,0.0011245942,0.0267565146,0.2864027023,0.0043809743,0,0.0060002467,0,0.0009774746,0.0002073485,0,0.0003537127,0,0.0001299483,0.0000285339,0.2229919847,0.0685488087,0.0037095473,0.5442921714,1.3770833333,0.0291666667,554.68942379,12.102992015,96.628250488,0,0.0194898323,0,0.0122109064,0.0026954445,0,0.0009613405,0,0.0006023058,0.0001329534
ABUR,2003-04-10,0.0330765319,0.0093973021,0.000994975,0.0293192038,0.2092224483,0.0042370889,0.0069152711,0.0102794996,0,0.0009814559,0.0002339444,0.0003829066,0.0006113688,0,0.0001246575,0.0000302001,0.1328045084,0.0360447504,0.0033126573,0.490608517,1.01875,0.025,713.58209181,22.872407164,121.3218607,0.0101907127,0.0348157164,0,0.0123567051,0.0031281638,0.0005153195,0.0017605458,0,0.0006248484,0.0001581836
ABUR,2003-05-12,0.0208816823,0.0068385384,0.0007023179,0.0504684725,0.1350677576,0.0028670774,0.0067446752,0.004364028,0,0.0009223298,0.0002470282,0.0002116099,0.0001490827,0,0.0000750156,0.0000196538,0.0744289312,0.0236224231,0.0021342494,0.4642274138,0.65,0.0208333333,773.44492212,27.124827134,133.44935419,0.011146092,0.0124882301,0,0.0118306549,0.0032230016,0.0003276666,0.0003671221,0,0.000347791,0.000094748
ABUR,2003-06-11,0.0238630238,0.0080652618,0.0009243297,0.0228012917,0.1959147604,0.0040244775,0.0050401885,0.0028049102,0,0.0008534751,0.0002143463,0.0001400746,0.0000872642,0,0.0000703164,0.0000150208,0.0954350795,0.0313501715,0.0031127559,0.2907313781,0.95,0.03125,788.30226739,19.135263419,112.28594628,0.0044510464,0.0080605421,0,0.0117964244,0.0025036447,0.0001215326,0.0002200873,0,0.0003220929,0.0000683602
ABUR,2003-07-07,0.0217519369,0.0078739094,0.0004068786,0.0508835256,0.1187485038,0.0041689617,0.0085331992,0.0045224392,0,0.0008921686,0.000219739,0.0002901822,0.0001713701,0,0.0000781062,0.0000163344,0.1007334414,0.0341503806,0.0014170867,0.5321960899,0.8791666667,0.0541666667,782.85258322,19.696259218,119.85924614,0.0110646951,0.0149609581,0,0.0122240763,0.0025715574,0.0003621509,0.0004896769,0,0.0004000979,0.0000841679
ABUR,2003-08-05,0.0159535354,0.0053948339,0.0004564334,0.0337135791,0.1176623904,0.0042734155,0.0038396704,0.0033307937,0,0.0008883479,0.0002309437,0.0001192827,0.0001145887,0,0.0000657366,0.0000150543,0.084796559,0.0268850208,0.0018078428,0.3411014097,0.9354166667,0.0583333333,789.26022194,39.909425305,147.75705251,0.0036331212,0.0113006417,0,0.0117410773,0.0027720761,0.0001103488,0.0003432345,0,0.0003566119,0.0000841963
ABUR,2003-09-02,,,,,,,,,,,,,,,,,0.0595575685,0.0193662232,0.0016940265,0.2792230539,0.7916666667,0.0833333333,747.47498617,29.833463639,146.05811081,0,0.009386599,0,0.0108578737,0.002408794,0,0.0002151451,0,0.0002488674,0.0000552106
ABUR,2003-09-02,0.0092139573,0.0032903269,0.0003856177,0.0325030944,0.0894255199,0.0078747565,0,0.0027678072,0,0.0007335324,0.0001992218,0,0.0000694132,0,0.0000396378,8.6291622E-6,,,,,,,,,,,,,,,,,,,
ABUR,2003-10-01,0.0167516919,0.006795473,0.0005838959,0.0261322118,0.1586631758,0.0113740729,0.0057163384,0.0023051022,0,0.0007052049,0.0001642723,0.0001657373,0.0000710312,0,0.0000429486,7.7142779E-6,0.1119348255,0.0405610641,0.0026024171,0.2973381793,1.3270833333,0.1145833333,652.7938009,20.893158317,129.76393946,0.0070824951,0.0075696328,0,0.0105826617,0.0020072239,0.0002030526,0.0002170187,0,0.0003034012,0.0000575464
ABUR,2003-11-13,0.0142064988,0.0041368383,0.0002919558,0.0299292016,0.1349455748,0.0064470663,0.0039203537,0.0052770056,0,0.000695573,0.0001666914,0.0001193519,0.0001699117,0,0.0000476754,8.7075654E-6,0.0769129157,0.0212535197,0.0012266982,0.2666879575,0.90625,0.0666666667,569.14013624,23.357671226,117.73663538,0.0051893849,0.0166138143,0,0.0104455068,0.0020036683,0.0001550308,0.0004963312,0,0.0003120554,0.0000598588
ABUR,2003-12-05,0.0184951126,0.0054574786,0.0006787421,0.0297202273,0.1739836719,0.0079084954,0.0058009781,0.0050985523,0,0.000683392,0.000184002,0.00014228,0.0001322998,0,0.000040898,8.4125883E-6,0.1011647368,0.0276498352,0.0027850332,0.2862878398,1.2541666667,0.08125,507.08621325,16.157717935,100.22045073,0.0053537743,0.0150107539,0,0.0102427976,0.0022399392,0.0001301588,0.0003649355,0,0.0002490188,0.0000544565
ABUR,2004-01-09,0.0219210856,0.0061004212,0.0007553728,0.0322916547,0.1655045925,0.0068215479,0.0064427749,0.0047074232,0,0.0007437588,0.0001861534,0.0001863652,0.0001471821,0,0.0000518818,0.0000104181,0.1125054972,0.0293987065,0.0029063503,0.3774731786,1.075,0.0583333333,471.55945624,8.7277690446,80.198113695,0.0082194878,0.014578266,0,0.01115976,0.0023087752,0.0002343814,0.0004157041,0,0.0003182243,0.0000658355
ABUR,2004-02-06,0.0185553931,0.0050709796,0.0005453826,0.0519344565,0.1053480146,0.0037150259,0.0105925305,0.0051508825,0,0.0009074803,0.0001988074,0.0002715476,0.0001476911,0,0.0000542801,0.0000114415,0.0730754763,0.0192541514,0.0017642494,0.4733112463,0.58125,0.0375,471.22833104,7.6406316842,70.227716087,0.0182437723,0.0184502504,0,0.0120760583,0.0025030617,0.0004372979,0.0004422471,0,0.0002894596,0.0000599977
ABUR,2004-03-08,0.0024542988,0.0006163325,0.0000568161,0.0194418526,0.036359403,0.0019058006,0.0105144046,0.0026232402,0,0.0007081261,0.0002678025,0.0001018779,0.000037309,0,0.0000314265,8.9839515E-6,0.0105516888,0.0025461226,0.0002024531,0.1653622858,0.1916666667,0.0125,562.67981239,11.100286169,94.741024824,0.0223595865,0.0093825748,0,0.0104551374,0.0028310691,0.0002320493,0.000097373,0,0.0001085041,0.000029381
ABUR,2004-04-12,0.00059958,0.0001440694,0.0000120156,0.0637451749,0.0058742909,0.0003727042,0.0000786155,0.0033157774,0,0.0006804023,0.000242925,1.2065017E-7,6.9429199E-6,0,4.389328E-6,1.0759941E-6,0.001990293,0.0004682403,0.0000343037,0.3564731635,0.025,0.0020833333,719.02196119,24.154217824,122.92104872,0,0.0142305588,0,0.0104447269,0.0026738634,0,0.0000233184,0,0.0000171149,4.381436E-6
ABUR,2004-05-19,0.0003614294,0.0000954846,0.0000101506,0,0.0057811241,0.0018308215,0.0025636976,0.0031367163,0,0.0005068095,0.0003030137,1.1648984E-6,1.7384274E-6,0,7.2432746E-7,2.8769585E-7,0.0015621445,0.0003956538,0.000035281,0,0.0354166667,0.0125,780.4917559,26.133203376,131.77909775,0.0033827876,0.0125289166,0,0.0079956357,0.0027758645,1.4577401E-6,5.3990691E-6,0,3.4455485E-6,1.1961995E-6
ABUR,2004-06-16,0.0004812599,0.0001322758,0.0000149626,0.0236220408,0.0075344017,0.002094735,0.0025951554,0.0043214683,0,0.0004251735,0.0001618597,1.2462878E-6,2.3753767E-6,0,3.9525966E-7,1.5537756E-7,0.0021287296,0.0005642866,0.000052155,0.05951622,0.05,0.01875,774.47941021,17.352274544,108.4481117,0.0024640311,0.014289274,0,0.0045507027,0.0019523726,1.1703941E-6,6.7872853E-6,0,2.1615456E-6,9.2736063E-7
ABUR,2004-07-16,0.0011800575,0.000338459,0.0000282648,0,0.0368641711,0.0090664844,0.0001004658,0.0023878103,0,0.0004247164,0.0001775646,7.5291428E-8,2.8372451E-6,0,7.9185231E-7,3.1678019E-7,0.0062919707,0.0016679542,0.0001129804,0,0.2333333333,0.0770833333,802.23768984,26.599926488,129.59668841,0,0.0086697343,0,0.0045507027,0.0019473953,0,8.8287373E-6,0,4.6341627E-6,1.9831106E-6
ABUR,2004-08-05,0.003829843,0.001221815,0.0000764068,0.0042554194,0.0836683509,0.022497724,0,0.0053997794,0,0.0003762237,0.0001548361,0,0.0000201271,0,2.3769879E-6,9.5189154E-7,0.0191633391,0.0057602119,0.0003050881,0.0132225325,0.5125,0.1875,780.00932206,39.633575839,147.43831488,0,0.0205881186,0,0.0039633512,0.0018250129,0,0.0000679793,0,0.0000130865,6.0259522E-6
ABUR,2004-09-07,0.0064863542,0.0019866722,0.0000892818,0.0334916711,0.0882465199,0.0131217862,0.0022567622,0.0089107077,0,0.0004625889,0.0001736084,0.0000168472,0.0000742547,0,7.2868529E-6,2.4528118E-6,0.0314998663,0.0092397515,0.0003386489,0.1504245507,0.5354166667,0.1041666667,743.20714494,27.794962846,142.5997001,0.0022456961,0.0316227133,0,0.0056653335,0.0020136351,0.0000165361,0.0002328529,0,0.0000417165,0.0000148273
ABUR,2004-10-07,0.0094126861,0.0027662759,0.0001739043,0.0170819174,0.1402012407,0.0169508919,0.0030865307,0.0039703375,0,0.0005511521,0.0001812559,0.0000351745,0.0000505697,0,0.0000149661,3.872734E-6,0.0491267133,0.0136126373,0.0007168481,0.1831034262,0.9083333333,0.1458333333,644.81319585,21.469771154,130.25917999,0.0029003792,0.0148034424,0,0.0078552835,0.0021763873,0.0000327318,0.000167062,0,0.0000886496,0.0000245613
ABUR,2004-11-10,0.0228466552,0.0068548122,0.0003004943,0.0104066623,0.2707420523,0.0238723253,0.0026534102,0.0052140066,0,0.0005596646,0.0001867536,0.0000627336,0.0001325548,0,0.0000317733,7.0902063E-6,0.1281592289,0.0358636278,0.0012014603,0.1982760743,1.78125,0.2083333333,563.20430732,24.616412849,118.21659429,0.0025591581,0.0186221098,0,0.0090985496,0.0021358151,0.0000587822,0.0004277379,0,0.0002089878,0.0000490583
ABUR,2004-12-03,0.0186000968,0.0056442704,0.0003509683,0.0162465472,0.1870949325,0.0124883544,0,0.00372886,0.0000489554,0.0006344385,0.0001616575,0,0.0001319869,2.0484135E-6,0.0000503288,9.4514576E-6,0.1024559587,0.0292758239,0.0014251916,0.2543871243,1.2833333333,0.1395833333,500.64909718,16.845395005,100.03744619,0,0.0130412326,0.0002336173,0.0100687709,0.0020487522,0,0.0004232973,7.5828386E-6,0.000326816,0.0000664992
ABUR,2005-02-08,0.0042502543,0.0010757366,0.0000739718,0.0142323541,0.047071932,0.0023379494,0.0025783771,0.0045431949,0,0.000586311,0.0001797929,0.0000391856,0.0000746806,0,0.000021824,4.6363707E-6,0.0265991031,0.006129725,0.0003238712,0.1085162795,0.38125,0.0333333333,473.75547078,8.4218186999,75.979492434,0.0042937623,0.0158238446,0,0.0093383421,0.0020078684,0.0000635604,0.0002342398,0,0.0001382352,0.0000297224
ABUR,2005-03-17,0.0020912593,0.0006098386,0.0000354191,0.0103630691,0.0315391166,0.0013833296,0.0057504889,0.0046180998,0,0.0004186106,0.0001830502,0.0000258721,0.000022172,0,4.5596386E-6,1.285318E-6,0.0107940202,0.0029117978,0.0001375228,0.0615040751,0.21875,0.0166666667,604.27980721,12.642213227,102.19040712,0.0109585164,0.0156223015,0,0.0072603982,0.0021671112,0.0000473733,0.0000675347,0,0.0000313865,9.3683518E-6
ABUR,2005-04-20,0.0081023306,0.0024716422,0.0002493531,0.0378745655,0.0584186786,0.0016423947,0,0.0024160257,0,0.0005752063,0.0002430862,0,0.0000183204,0,9.0649122E-6,2.9358536E-6,0.0449146834,0.0130779686,0.0009979671,0.3802396322,0.44375,0.0208333333,732.73951587,29.687961916,125.73482098,0,0.0077317814,0,0.0087411479,0.0026366135,0,0.0000523264,0,0.0000591575,0.0000178438
ABUR,2005-05-10,0.005372982,0.0015488812,0.0002038576,0.0183579968,0.0633610366,0.0015164498,0,0.0045043978,0,0.0006328898,0.0002325984,0,0.0000530341,0,0.000017296,5.1358536E-6,0.0286916916,0.0076919188,0.0007949254,0.1792313844,0.44375,0.01875,780.33084827,21.759535768,133.10277786,0,0.015545492,0,0.0096367889,0.0027212078,0,0.000157753,0,0.0000977925,0.0000276144
ABUR,2005-06-09,0.0066673607,0.0017852295,0.0002409182,0.0092430652,0.0859537314,0.0015738604,0.0029062878,0.0041599514,0,0.0005651914,0.0002139444,0.0000240935,0.0000383664,0,0.000011381,3.3810916E-6,0.0349562124,0.0088688595,0.0009627177,0.2918778411,0.5708333333,0.01875,796.74052264,19.250320521,114.41738975,0.0029003792,0.0141888564,0,0.0088339741,0.0027041094,0.0000239758,0.0001172912,0,0.0000730254,0.0000223533
ABUR,2005-07-05,0.0107922298,0.0029380283,0.0003178494,0.0453716978,0.0705624912,0.0042621355,0.0038329115,0.0019389566,0.0000708058,0.0007671528,0.0002655199,0.0000435231,0.0000253463,7.8891993E-7,0.0000198617,5.9858879E-6,0.0533119049,0.0135483849,0.0012495455,0.4524791529,0.5166666667,0.0541666667,772.38499236,19.291409802,117.240317,0.0036657761,0.0081555576,0.0002474935,0.0107415956,0.0032783348,0.0000404844,0.000090069,2.7332885E-6,0.0001186289,0.0000362055
ABUR,2005-08-08,0.0084084333,0.0023865709,0.0001858358,0.0200096594,0.1474152271,0.02246366,0,0.0026409466,0,0.0006384203,0.000262353,0,0.0000393756,0,0.0000195519,6.3500989E-6,0.0494864157,0.0130543507,0.0008148152,0.1482341941,1.1145833333,0.2708333333,787.01512212,38.330830564,146.95149024,0,0.0104545298,0,0.009609097,0.0030416803,0,0.0001390436,0,0.0001277994,0.0000404539
ABUR,2005-09-13,0.0066641753,0.0019602516,0.0000945004,0.0192804933,0.1327081351,0.0204973245,0,0.0059871926,0,0.0004335495,0.0001878817,0,0.0000802661,0,0.0000123155,3.8687751E-6,0.0398445543,0.011017066,0.0004057016,0.1200246873,0.99375,0.2479166667,727.65672861,26.18539054,139.98482259,0,0.0233750568,0,0.0070484315,0.00229672,0,0.0002806623,0,0.0000846299,0.0000275765
ABUR,2005-10-11,0.0165905832,0.0050024253,0.0002788907,0.0256898937,0.2459821074,0.0321935961,0.0023048447,0.004280683,0.0001101499,0.0004552343,0.0001911218,0.0000414003,0.0000860026,2.5521873E-6,0.0000189882,5.4014262E-6,0.1000628835,0.0273655316,0.0012194256,0.176373744,1.875,0.3895833333,643.07229696,22.078118879,130.67553318,0.0023049472,0.017489951,0.0007999642,0.0072446687,0.0022304901,0.0000414165,0.0003142687,0.0000143742,0.0001301761,0.0000400786
ABUR,2005-11-03,0.0175229146,0.0051682932,0.000253169,0.0161827819,0.24083886,0.0253025836,0.0028921558,0.0037135256,0.0001928962,0.0004619368,0.0001694651,0.000079929,0.0001152703,9.5961305E-6,0.0000290059,7.9219335E-6,0.0993320779,0.0273393945,0.0010659956,0.0935646147,1.7458333333,0.31875,546.39029352,24.277898898,115.7285456,0.0027269798,0.0156385969,0.0019426911,0.0070188323,0.0020481021,0.0000745896,0.0004277541,0.0000531374,0.0001919823,0.0000560206
ABUR,2005-12-05,0.0227725259,0.0066355972,0.0004069033,0.0090308228,0.288909786,0.0240076398,0.0020422922,0.0014753203,0.0001291509,0.0003963345,0.0001563709,0.0000650611,0.0000533313,4.5455625E-6,0.0000306492,8.2514948E-6,0.1326993524,0.0360908291,0.0017590935,0.0924192384,2.1020833333,0.29375,514.13955999,18.291433784,102.88168824,0.00205974,0.0064950055,0.0005117593,0.0065975724,0.0018931704,0.0000649083,0.0002046761,0.000016127,0.0002079083,0.0000596592
ABUR,2006-01-24,0.0032260584,0.0010169578,0.0000828409,0.0234731109,0.0401395646,0.0030495617,0.0037090766,0.0053943676,0,0.0004763281,0.0001570219,0.000061632,0.0000913144,0,0.0000240415,5.2745756E-6,0.0163235008,0.0048610622,0.0003218715,0.1397059916,0.2854166667,0.0395833333,464.48925617,8.1048183305,76.097619759,0.0081093022,0.0226197423,0,0.0078918371,0.0017607873,0.0001263238,0.0003523622,0,0.0001229362,0.0000274289
ABUR,2006-02-21,0.0064813202,0.0019416558,0.0001204188,0.0318020189,0.0589944374,0.0032163973,0.0034390605,0.003417763,0,0.0006312045,0.0001835618,0.0000243632,0.0000285255,0,0.0000108989,2.4265333E-6,0.0349896995,0.0096032587,0.0004910147,0.3770732029,0.4270833333,0.0395833333,525.9883558,9.0334457947,80.559740897,0.0047689783,0.0151522425,0,0.0097132788,0.0022140266,0.0000332167,0.0001055378,0,0.0000676545,0.000015421
ABUR,2006-03-14,0.0043289113,0.0012054177,0.0001520398,0.0114902795,0.06012412,0.0026465113,0.0048073772,0.0016708942,0,0.0005453502,0.0002039712,0.0000385216,0.0000152768,0,0.0000121793,3.448856E-6,0.0230727477,0.0059228859,0.0006025581,0.0735802591,0.4208333333,0.03125,619.95725445,12.688116691,107.77798648,0.0063586377,0.0065330588,0,0.0083132526,0.0024460225,0.0000484237,0.000049752,0,0.000063309,0.0000186275
ABUR,2006-04-10,0.0092650548,0.0024896163,0.0003018396,0.0326875784,0.061783632,0.0019010387,0.0071368532,0.0032253,0,0.0005906824,0.0002533999,0.0000680804,0.0000335894,0,0.0000124414,4.079636E-6,0.0496722184,0.0125263574,0.0012032991,0.4098813442,0.4375,0.0208333333,717.36412762,25.889657291,122.22226912,0.0150172262,0.0135076221,0,0.0088309393,0.0029023428,0.0001323957,0.0001190866,0,0.0000778558,0.0000255878
ABUR,2006-05-02,0.0052657172,0.0016243103,0.0001437129,0.0264522794,0.0631965972,0.0022944544,0,0.0017670498,0,0.0007580208,0.0002510564,0,0.0000215484,0,0.0000196336,5.5071039E-6,0.0301490465,0.0086683147,0.0006124127,0.288274592,0.4645833333,0.0270833333,754.2434929,32.318452204,133.78659523,0,0.0067994288,0,0.01093951,0.0030512042,0,0.0000712528,0,0.0001146377,0.0000319743
ABUR,2006-06-07,0.0042107812,0.0015120885,0.0001065525,0.0284442607,0.050498531,0.001642923,0.0063728661,0.003816521,0.0004404603,0.0006345509,0.0001966599,0.0000540483,0.0000349765,4.9198404E-6,0.0000117768,2.7795957E-6,0.0224724708,0.0075663287,0.0004290902,0.1966443551,0.3458333333,0.01875,809.58045501,18.920425662,119.43185766,0.0141896007,0.0141002926,0.0028230114,0.0094565608,0.0023227893,0.0001150044,0.0001142806,0.0000228801,0.0000766439,0.0000188258
ABUR,2006-07-01,0.0038353135,0.0013352099,0.00005676,0.0128260996,0.0514098434,0.0021270056,0.0034945608,0.0018735443,0.0003680294,0.0004513575,0.0001494836,0.0000242892,0.0000150595,3.2577389E-6,7.6124789E-6,1.9383199E-6,0.0192585379,0.0062515072,0.0002252952,0.0572336933,0.3875,0.0291666667,766.75120817,17.549440146,113.60409979,0.0033351128,0.0067304789,0.0021014501,0.00700183,0.0018002729,0.0000229723,0.0000463596,0.0000144748,0.0000482287,0.0000124003
ABUR,2006-08-04,0.0046425284,0.0014099745,0.0000363587,0.0040928293,0.0591582835,0.0015514183,0.0024289531,0.0039549249,0.000312888,0.000383393,0.00014623,0.0000146992,0.0000271287,3.7247386E-6,5.3821436E-6,1.7759689E-6,0.0185906063,0.0054370452,0.0001184085,0.0204448314,0.3520833333,0.0229166667,785.33290804,37.368880434,144.03663956,0.0023541973,0.0143286568,0.0031118563,0.0049876173,0.0017857892,0.0000137363,0.0000836049,0.0000181571,0.0000291018,0.0000104197
ABUR,2006-09-01,0.0044686054,0.0014523447,0.0000410751,0,0.0584499269,0.002073537,0.00294931,0.0048618819,0,0.0003729626,0.0001412871,0.0000164775,0.0000320329,0,4.6441385E-6,1.8360727E-6,0.0176654786,0.0055628648,0.0001416854,0,0.3166666667,0.025,754.49229425,30.853967864,147.63453024,0.0028586681,0.017312368,0,0.0042003997,0.0017531582,0.0000157219,0.0000952131,0,0.000023101,9.6418709E-6
ABUR,2006-10-03,0.0032705825,0.0009503355,0.0000336998,0.0086269758,0.0483440739,0.0016623273,0.0000790991,0.0036363028,0,0.0003873476,0.0001479998,4.3835036E-7,0.000022021,0,4.4506889E-6,1.5146068E-6,0.0165634866,0.0045400032,0.0001303557,0.0449760589,0.33125,0.0229166667,658.38362393,20.216881137,130.02231038,0,0.0135948851,0,0.0049084438,0.0017464336,0,0.0000684384,0,0.0000247097,8.791768E-6
ABUR,2006-11-01,0.0044862716,0.0015281163,0.0000389247,0.0180776972,0.0609177278,0.0027437062,0,0.0023472292,0,0.00041988,0.0001517766,0,0.000014959,0,6.1369811E-6,1.5917044E-6,0.0209004236,0.0067008563,0.0001411858,0.1109307203,0.4,0.0375,576.0304475,23.762636424,119.5793775,0,0.0084791433,0,0.0067519856,0.0017781699,0,0.0000470635,0,0.0000374769,9.8697375E-6
ABUR,2006-12-01,0.0039663938,0.0010598974,0.0000615613,0.0252738593,0.0477980584,0.00306125,0.0064665717,0.0025366083,0,0.000492869,0.0001537438,0.0000373061,0.0000161225,0,7.5649928E-6,1.7269781E-6,0.0179613316,0.0046288807,0.0002273144,0.1375472499,0.3145833333,0.0395833333,518.28228366,19.428571046,104.70617932,0.0122574927,0.008635805,0,0.0074887254,0.0018366537,0.000068656,0.0000483704,0,0.0000419454,0.0000102874
ABUR,2007-01-03,0.0007330608,0.0002332134,0.0000183017,0.0168345593,0.0124753545,0.0018476318,0.0156466063,0.0025172647,0,0.0004998277,0.0001633456,0.0000455347,7.1424587E-6,0,3.8380308E-6,9.1093582E-7,0.0045372469,0.0013531178,0.0000790368,0.1228615802,0.1083333333,0.0270833333,424.26980459,7.9730342974,75.262289134,0.0393722116,0.005937239,0,0.0077748708,0.0018669216,0.0001048651,0.0000158134,0,0.0000207078,4.9724157E-6